STARLINK-32293, 61526

Orbit data source: Space-Track

STARLINK-32293, 61526 is a payload satellite owned by SpaceX/Seattle (US) in LEO that was launched on Tue, 15 Oct 2024 UTC via an FALCON 9 launch vehicle from the Air Force Eastern Test Range (AFETR). Payload-class satellites include a variety of spacecraft equipped with specific instruments for various scientific and technological missions. These include communications satellites like Starlink; space stations such as the ISS; scientific satellites like the Hubble; Earth observation satellites from companies like Planet Labs, Umbra, and HawkEye 360; GPS; miniature CubeSats for education and research; and military/defense satellites.

Loading next visibility...
Identifier
61526, 2024-183T
Orbit
LEO
Country
Flag of USUS
Related business
Manufacturer
SpaceX/Seattle
Mission
Operational Commercial Communications
Bus & Motor
STARLINK V2M, Unknown motor
Mass
730 kg wet, ~700 kg dry
Launch date (UTC)
2024-10-15 (2 years ago)
Launch vehicle
FALCON 9
Launch site
Air Force Eastern Test Range (AFETR)
Object type
Payload
Rocket body
Debris
Shape & HBR
Box + 2 Pan, 17.7 m
Radar Cross Section
33.884 m², Large (>1 m²)

Expand to show TLE details & history
Last TLE update: 23 hours ago

TLE from 23 hours ago
0 STARLINK-32293
1 61526U 24183T   26170.88125060  .00001133  00000-0  50382-4 0  9994
2 61526  53.1606  28.1052 0001166  84.2668 275.8466 15.30203449 95293
Epoch: 2026-06-19T21:09Z
TLE epoch observation values (Epoch: 2026-06-19T21:09:00.051Z)
Latitude
-0.00002°
Longitude
162.75111°
Altitude
476.023 km
Speed
7.629 km/s
True Right ascension
01h 52m 25s
True Declination
0° 00' 00"
Sunlit
Object was in daylight at epoch
Visualization orbit readout
Latitude
Unknown
Longitude
Unknown
Altitude
Unknown
Speed
Unknown
Apparent Right ascension
Unknown
Apparent Declination
Unknown
Sunlit
N/A
Visualization observer readout
Local Sidereal Time
07:24:38
Azimuth
Unknown
Elevation
Unknown
Doppler factor
Unknown
Orbital elements
Apogee altitude
476.26 km
Perigee altitude
474.662 km
Semi-major axis
6,853.598 km
Eccentricity
0.00012
Inclination
53.1606°
RAAN
28.1052°
Arg. of periapsis
84.2668°
True anomaly
275.83331°
Mean anomaly
275.8466°
Eccentric anomaly
275.83995°
Mean motion
3.8253 °/min
Orbital period
94.11 mins
BSTAR
0.000050382
Loading maneuver chart data...
Computing Atmospheric mass density...
Loading historical data...
Loading historical data...
Loading historical data...
Loading historical data...
Loading historical data...
Loading historical data...
Loading historical data...

Documentation

Showing up to 5 results
|